User: anonymous   Login
Location: Seattle
(47.6064°N, 122.3308°W)
Time: 22:44:46
(UTC-08:00)
Language:

Vanguard 2 Rocket - Orbit

View from above orbital plane
View from above orbital plane
View from above satellite
View from above satellite

Ground track
Ground track

The orbit data is extracted from the following two-line orbital elements,

1    12U 59001B   20331.81550553  .00000330  00000-0  17555-3 0  9991
2    12  32.9026 142.8908 1666571 209.5842 139.9343 11.44360522541157
Epoch (UTC): 26 November 2020 19:34:19
Eccentricity: 0.1666571
inclination: 32.9026°
perigee height: 554 km
apogee height: 3326 km
right ascension of ascending node: 142.8908°
argument of perigee: 209.5842°
revolutions per day: 11.44360522
mean anomaly at epoch: 139.9343°
orbit number at epoch: 54115

The dashed part of the orbit path shows where the satellite is in the earth's shadow,  

DLR